Location: Mountain Grove
(34.0887°N, 86.6172°W)
Time: 00:56:28
(UTC+00:00)

CENTAUR R/B - Pass Details

Date: 14 July 2020
Orbit: 756 x 1432 km, 63.5° (Epoch: 08 August)

Event Time Altitude Azimuth Distance (km) Brightness Sun altitude
Exits shadow 08:30:27 16° 151° (SSE) 2,064 4.0 -22.8°
Maximum altitude 08:33:36 25° 108° (ESE) 1,698 4.0 -22.4°
Drops below altitude 10° 08:38:32 10° 55° (NE) 2,712 5.9 -21.7°
Sets 08:41:45 0° 43° (NE) 3,785 7.2 -21.3°
